Darstellungsparameter: Aktuell verwendete Einstellungen:
Skalierung der Graphiken ... ?
xyx+y,   Skalierungsfaktor:      Skalierung: Modus: x, Faktor: 1
Darstellungszeitraum ... ?
Vom - - bis: - -   Zeitraum: 29.02.2020 - 28.05.2020
Min/Max/Avg-Anzeige ... ?
Zeige MMA aktuell
Zeige MMA Monat
Zeige MMA alles
Zeige --A aktuell
Zeige --A Monat
Zeige --A alles
Keine MMA-Anzeige
MMA:
Minimum Maximum Average (ber die Originaldaten)
MMA-Basis: 14.04.2020 - 16.05.2020
Quicknavigation für Darstellung... ?
Tage:      1T, 2T, 3T, 5T -1T -2T -3T -5T +1T +2T +3T +5T
Wochen: 1W, 2W, 3W -1W -2W -3W +1W +2W +3W
Monate: 1M, 3M, 6M -1M -3M -6M +1M +3M +6M
Jahre:    1J, 3J, 5J, 10J -1J -3J -5J -10J +1J +3J +5J +10J
Nutze für die Darstellung ... ?
Originaldaten oder ...
Mittelwerte Minima Maxima auf...
Stundenbasis Tagesbasis Wochenbasis
Monatsbasis Jahresbasis      Datenbasis: Mittelwerte auf Tagesbasis
Darstellen als:
Statistik (Auto) Statistik J:M      Darstellung:
Zur Graphik,    zurück zur Übersicht aller Sensoren.
 
Tabellarische Datenbersicht: ?
 
Sensor: Nr:Datum:Temp:Abs-Feuchte:Windchill:Wind:
Aussen-T/F 1 29-02-2020 00:00:00 8.92083 C 7.3 g/m*3 7.53 C 9.02882 km/h
2 01-03-2020 00:00:00 7.55313 C 6.69 g/m*3 5.79 C 9.58958 km/h
3 02-03-2020 00:00:00 6.27882 C 6.58 g/m*3 6.28 C 4.65521 km/h
4 03-03-2020 00:00:00 4.69236 C 5.9 g/m*3 3.05 C 7.02118 km/h
5 04-03-2020 00:00:00 5.49583 C 6.03 g/m*3 3.43 C 9.175 km/h
6 05-03-2020 00:00:00 6.08229 C 6.79 g/m*3 6.08 C 3.4184 km/h
7 06-03-2020 00:00:00 6.29896 C 6.69 g/m*3 4.66 C 7.99722 km/h
8 07-03-2020 00:00:00 6.57396 C 5.95 g/m*3 5.6 C 5.78715 km/h
9 08-03-2020 00:00:00 9.63993 C 7.07 g/m*3 8.43 C 8.76528 km/h
10 09-03-2020 00:00:00 7.99514 C 6.74 g/m*3 6.85 C 7.1875 km/h
11 10-03-2020 00:00:00 9.51076 C 8.25 g/m*3 7.22 C 15.70625 km/h
12 11-03-2020 00:00:00 14.09028 C 10.44 g/m*3 14.09 C 18.09792 km/h
13 12-03-2020 00:00:00 11.24514 C 7.38 g/m*3 11.25 C 14.52049 km/h
14 13-03-2020 00:00:00 7.37569 C 6.06 g/m*3 5.27 C 11.20972 km/h
15 14-03-2020 00:00:00 6.05799 C 6.07 g/m*3 6.06 C 2.24028 km/h
16 15-03-2020 00:00:00 8.92639 C 6.51 g/m*3 8.93 C 4.61528 km/h
17 16-03-2020 00:00:00 9.3 C 7.21 g/m*3 9.3 C 2.61528 km/h
18 17-03-2020 00:00:00 11.38021 C 8.2 g/m*3 11.38 C 2.01007 km/h
19 18-03-2020 00:00:00 9.96493 C 7.74 g/m*3 9.96 C 2.87535 km/h
20 19-03-2020 00:00:00 12.13646 C 8.18 g/m*3 12.14 C 1.76944 km/h
21 20-03-2020 00:00:00 10.33299 C 8.07 g/m*3 9.69 C 6.66424 km/h
22 21-03-2020 00:00:00 6.16667 C 5.61 g/m*3 4.33 C 8.72188 km/h
23 22-03-2020 00:00:00 4.50243 C 3.8 g/m*3 2.15 C 9.60833 km/h
24 23-03-2020 00:00:00 2.99688 C 3.29 g/m*3 1.04 C 7.14792 km/h
25 24-03-2020 00:00:00 2.86181 C 3.32 g/m*3 1.43 C 5.55451 km/h
Sensor: Nr:Datum:Temp:Abs-Feuchte:Windchill:Wind:
Aussen-T/F 26 25-03-2020 00:00:00 3.75208 C 3.3 g/m*3 2.26 C 6.0691 km/h
27 26-03-2020 00:00:00 5.07118 C 3.92 g/m*3 3.35 C 7.52292 km/h
28 27-03-2020 00:00:00 7.93715 C 5.5 g/m*3 7.94 C 4.7875 km/h
29 28-03-2020 00:00:00 9.59861 C 6.11 g/m*3 9.23 C 5.23438 km/h
30 29-03-2020 00:00:00 5.44891 C 4.87 g/m*3 2.38 C 14.50109 km/h
31 30-03-2020 00:00:00 2.775 C 3.76 g/m*3 1.41 C 5.34861 km/h
32 31-03-2020 00:00:00 5.47118 C 4.64 g/m*3 4.25 C 6.03681 km/h
33 01-04-2020 00:00:00 3.8184 C 3.91 g/m*3 3.82 C 2.97292 km/h
34 02-04-2020 00:00:00 5.06042 C 4.64 g/m*3 5.06 C 4.05799 km/h
35 03-04-2020 00:00:00 8.20382 C 5.62 g/m*3 7.03 C 7.44306 km/h
36 04-04-2020 00:00:00 6.78958 C 5.27 g/m*3 6.79 C 4.17049 km/h
37 05-04-2020 00:00:00 9.49479 C 5.92 g/m*3 9.49 C 4.43299 km/h
38 06-04-2020 00:00:00 12.0434 C 6.45 g/m*3 12.04 C 4.85382 km/h
39 07-04-2020 00:00:00 13.80521 C 7.99 g/m*3 13.81 C 3.16285 km/h
40 08-04-2020 00:00:00 14.48472 C 8.09 g/m*3 14.48 C 2.53403 km/h
41 09-04-2020 00:00:00 15.29167 C 8.18 g/m*3 15.29 C 3.63889 km/h
42 10-04-2020 00:00:00 14.13646 C 8.07 g/m*3 14.14 C 3.47292 km/h
43 11-04-2020 00:00:00 14.06563 C 6.91 g/m*3 14.07 C 3.86285 km/h
44 12-04-2020 00:00:00 15.15174 C 7.8 g/m*3 15.15 C 3.30764 km/h
45 13-04-2020 00:00:00 9.40139 C 6.26 g/m*3 8.22 C 8.425 km/h
46 14-04-2020 00:00:00 6.11181 C 4.69 g/m*3 5.29 C 5.16042 km/h
47 15-04-2020 00:00:00 8.67361 C 5.61 g/m*3 8.67 C 3.12465 km/h
48 16-04-2020 00:00:00 12.83299 C 7.18 g/m*3 12.83 C 4.85938 km/h
49 17-04-2020 00:00:00 15.23854 C 9.05 g/m*3 15.24 C 2.55313 km/h
50 18-04-2020 00:00:00 14.52083 C 9.82 g/m*3 14.52 C 2.63993 km/h
Sensor: Nr:Datum:Temp:Abs-Feuchte:Windchill:Wind:
Aussen-T/F 51 19-04-2020 00:00:00 13.06597 C 8.91 g/m*3 13.07 C 4.55833 km/h
52 20-04-2020 00:00:00 12.5066 C 5.55 g/m*3 12.51 C 9.3809 km/h
53 21-04-2020 00:00:00 13.59583 C 5.65 g/m*3 13.6 C 10.06701 km/h
54 22-04-2020 00:00:00 14.35 C 6.22 g/m*3 14.35 C 7.5316 km/h
55 23-04-2020 00:00:00 14.16042 C 7.04 g/m*3 14.16 C 4.06528 km/h
56 24-04-2020 00:00:00 13.96285 C 7.44 g/m*3 13.96 C 4.66563 km/h
57 25-04-2020 00:00:00 12.06389 C 6.69 g/m*3 12.06 C 6.73785 km/h
58 26-04-2020 00:00:00 11.44375 C 6.84 g/m*3 11.44 C 2.65521 km/h
59 27-04-2020 00:00:00 12.89201 C 7.5 g/m*3 12.89 C 3.69201 km/h
60 28-04-2020 00:00:00 12.69306 C 9.65 g/m*3 12.69 C 4.55451 km/h
61 29-04-2020 00:00:00 14.31979 C 9.44 g/m*3 14.32 C 7.80625 km/h
62 30-04-2020 00:00:00 12.21632 C 9 g/m*3 12.22 C 7.24097 km/h
63 01-05-2020 00:00:00 10.57674 C 8.42 g/m*3 9.69 C 7.9691 km/h
64 02-05-2020 00:00:00 9.93542 C 7.85 g/m*3 8.71 C 9.12813 km/h
65 03-05-2020 00:00:00 10.39028 C 7.44 g/m*3 10.39 C 4.16701 km/h
66 04-05-2020 00:00:00 11.82361 C 8.83 g/m*3 11.82 C 3.89167 km/h
67 05-05-2020 00:00:00 10.30833 C 6.6 g/m*3 10.31 C 4.70208 km/h
68 06-05-2020 00:00:00 10.34687 C 6.05 g/m*3 10.35 C 4.38403 km/h
69 07-05-2020 00:00:00 12.36771 C 7.31 g/m*3 12.37 C 2.86944 km/h
70 08-05-2020 00:00:00 15.11146 C 8.36 g/m*3 15.11 C 2.19965 km/h
71 09-05-2020 00:00:00 15.97396 C 9.77 g/m*3 15.97 C 2.71493 km/h
72 10-05-2020 00:00:00 15.5441 C 11.54 g/m*3 15.54 C 2.07882 km/h
73 11-05-2020 00:00:00 9.41007 C 6.58 g/m*3 7.22 C 14.7434 km/h
74 12-05-2020 00:00:00 7.67674 C 5.27 g/m*3 7.12 C 5.00139 km/h
75 13-05-2020 00:00:00 8.92604 C 5.92 g/m*3 8.43 C 5.34167 km/h
Sensor: Nr:Datum:Temp:Abs-Feuchte:Windchill:Wind:
Aussen-T/F 76 14-05-2020 00:00:00 9.71389 C 6.11 g/m*3 8.97 C 6.69549 km/h
77 15-05-2020 00:00:00 10.43264 C 5.89 g/m*3 9.94 C 6.10278 km/h
78 16-05-2020 00:00:00 11.17396 C 6.49 g/m*3 11.17 C 3.70278 km/h
79 17-05-2020 00:00:00 13.11528 C 7.24 g/m*3 13.12 C 5.45208 km/h
80 18-05-2020 00:00:00 15.67292 C 8.67 g/m*3 15.67 C 4.54201 km/h
81 19-05-2020 00:00:00 16.60729 C 9.31 g/m*3 16.61 C 4.70694 km/h
82 20-05-2020 00:00:00 17.77917 C 10.91 g/m*3 17.78 C 5.79792 km/h
83 21-05-2020 00:00:00 19.01562 C 11.3 g/m*3 19.02 C 4.26215 km/h
84 22-05-2020 00:00:00 19.97639 C 12.99 g/m*3 19.98 C 4.51806 km/h
85 23-05-2020 00:00:00 13.69236 C 10.37 g/m*3 13.69 C 7.32083 km/h
86 24-05-2020 00:00:00 13.58542 C 8.77 g/m*3 13.59 C 8.86458 km/h
87 25-05-2020 00:00:00 15.93854 C 10.17 g/m*3 15.94 C 6.43507 km/h
88 26-05-2020 00:00:00 14.58437 C 8.98 g/m*3 14.58 C 4.27986 km/h
89 27-05-2020 00:00:00 16.48611 C 9.1 g/m*3 16.49 C 3.63056 km/h
90 28-05-2020 00:00:00 17.49132 C 8.08 g/m*3 17.49 C 7.57882 km/h

Maximal/Minimal-Werte vom 14.04.2020 - 16.05.2020

Sensor Min Max Avg
Temp
(Aussen-T/F)
-0.1 °C
15-04-2020  06:55:00
26.2 °C
17-04-2020  18:05:00
11.98 °C

Die Daten stammen von einer Davis Vantage Pro 2 Wetter-Station und werden unter Linux mit der Software wview2wettercgi und aufbereitet. Alle Angaben erfolgen ohne Gewähr für ihre Vollständigkeit oder Richtigkeit.
Kontakt: Rainer Krienke krienke@uni-koblenz.de . Meine Webseiten an der Uni Koblenz oder privat.
Version: $Revision: 0.78 $